Regional Weather Roundup
Issued by NWS

Home | Current Version | Previous Version | Text Only | Print | Product List | Glossary Off
Versions: 1 2 3 4 5 6 7 8 9 10 11 12 13 14 15 16 17 18 19 20 21 22 23 24 25 26 27 28 29 30 31 32 33 34 35 36 37 38 39 40 41 42 43 44 45 46 47 48 49 50

000
ASUS43 KIND 211300
RWRIN

WEATHER ROUNDUP FOR INDIANA
NATIONAL WEATHER SERVICE INDIANAPOLIS IN
900 AM EDT FRI JUL 21 2017

NOTE: "FAIR" INDICATES FEW OR NO CLOUDS BELOW 12,000 FEET WITH NO
SIGNIFICANT WEATHER AND/OR OBSTRUCTIONS TO VISIBILITY.

* - STATION DOES NOT REPORT WEATHER SUCH AS PRECIPITATION OR FOG.

+ - STATION NOT QUALITY CONTROLLED BY THE NATIONAL WEATHER SERVICE.
    USE DATA WITH CAUTION...ESPECIALLY DEWPOINT AND RELATIVE
    HUMIDITY OBSERVATIONS.

INZ001>003-010>013-019-020-211400-
NORTHWEST INDIANA

CITY           SKY/WX    TMP DP  RH WIND       PRES   REMARKS
GARY /AIRPORT/ PTSUNNY   77  72  83 CALM      29.98F
MICHIGAN CITY+ CLOUDY    72  72 100 SE3       29.99F
MONTICELLO +   CLOUDY    71  70  95 NE5       29.99S
RENSSELAER +   CLOUDY    72  70  94 CALM      29.99F

$$

LMZ046-743>745-211400-
SOUTHERN LAKE MICHIGAN

STATION/POSITION TIME  TEMP    WIND        PRES    WAVE
                       AIR SEA DIR/SP/G            HT
                 (UTC) (F)     (DEG/KT/KT) (MB)    (FT)
BURNS HARBOR     1240   74      80/  5/  8 1015.6F
MICHIGAN CITY    1230   73      50/  7/  7   N/A
5NW MICH CITY    1250   74 74   90/  8/ 12   N/A     0

$$

INZ004-005-014>016-021>024-211400-
NORTH CENTRAL INDIANA

CITY           SKY/WX    TMP DP  RH WIND       PRES   REMARKS
ELKHART        CLOUDY    70  68  94 CALM      30.03S
GOSHEN         CLOUDY    72  67  84 CALM      30.03S
PERU/GRISSOM   CLOUDY    72  72 100 NE6       29.98F
SOUTH BEND     PTSUNNY   71  69  93 NE8       30.01F
WARSAW +       CLOUDY    72  70  94 NE6       30.01F

$$

INZ006>009-017-018-025>027-211400-
NORTHEAST INDIANA

CITY           SKY/WX    TMP DP  RH WIND       PRES   REMARKS
ANGOLA *+      CLOUDY    70  63  78 N5        30.03R
FORT WAYNE     CLOUDY    73  69  87 NW3       30.03S
KENDALLVILLE + CLOUDY    70  70 100 SW3       30.05R FOG

$$

INZ028-029-035-036-043>045-051>053-211400-
WEST CENTRAL INDIANA

CITY           SKY/WX    TMP DP  RH WIND       PRES   REMARKS
LAFAYETTE      CLOUDY    72  72 100 SW5       29.98F
TERRE HAUTE    PTSUNNY   78  70  76 E3        30.02S

$$

INZ030>032-037>040-046>048-054>057-064-065-211400-
CENTRAL INDIANA

CITY           SKY/WX    TMP DP  RH WIND       PRES   REMARKS
ANDERSON       LGT RAIN  70  66  88 CALM      30.01
COLUMBUS       CLOUDY    72  68  88 CALM      30.06R
FRANKFORT +    LGT RAIN  73  71  93 E6        29.98F
INDIANAPOLIS   CLOUDY    73  70  90 SE3       30.01F
-EAGLE CREEK   CLOUDY    72  69  90 SE3       30.01S
KOKOMO +       CLOUDY    71  70  96 E6        30.00F
MT COMFORT *+  CLOUDY    70  68  94 SE3       30.03F
SHELBYVILLE    LGT RAIN  73  68  84 S6        30.02F

$$

INZ033-034-041-042-049-050-058-059-211400-
EAST CENTRAL INDIANA

CITY           SKY/WX    TMP DP  RH WIND       PRES   REMARKS
MUNCIE         LGT RAIN  72  67  84 N9        30.02F
RICHMOND +     HVY RAIN  68  66  94 N7        30.07S

$$

INZ060-061-067>069-081>083-085>088-211400-
SOUTHWEST INDIANA

CITY           SKY/WX    TMP DP  RH WIND       PRES   REMARKS
EVANSVILLE     CLOUDY    82  74  76 SW5       30.02S
HUNTINGBURG *+ CLOUDY    79  75  87 S5        30.04R

$$

INZ062-063-066-070>080-084-089>092-211400-
SOUTH CENTRAL AND SOUTHEAST INDIANA

CITY           SKY/WX    TMP DP  RH WIND       PRES   REMARKS
BLOOMINGTON    CLOUDY    79  69  71 E6        30.04S
MADISON *+     CLOUDY    75  72  88 CALM      30.08S
SEYMOUR +      CLOUDY    79  72  78 N5        30.06R

$$





USA.gov is the U.S. government's official web portal to all federal, state and local government web resources and services.